Regional Weather Roundup
Issued by NWS

Home | Current Version | Previous Version | Text Only | Print | Product List | Glossary Off
Versions: 1 2 3 4 5 6 7 8 9 10 11 12 13 14 15 16 17 18 19 20 21 22 23 24 25 26 27 28 29 30 31 32 33 34 35 36 37 38 39 40 41 42 43 44 45 46 47 48 49 50

000
ASUS43 KIND 261259
RWRIN

WEATHER ROUNDUP FOR INDIANA
NATIONAL WEATHER SERVICE INDIANAPOLIS IN
900 AM EDT MON JUN 26 2017

NOTE: "FAIR" INDICATES FEW OR NO CLOUDS BELOW 12,000 FEET WITH NO
SIGNIFICANT WEATHER AND/OR OBSTRUCTIONS TO VISIBILITY.

* - STATION DOES NOT REPORT WEATHER SUCH AS PRECIPITATION OR FOG.

+ - STATION NOT QUALITY CONTROLLED BY THE NATIONAL WEATHER SERVICE.
    USE DATA WITH CAUTION...ESPECIALLY DEWPOINT AND RELATIVE
    HUMIDITY OBSERVATIONS.

INZ001>003-010>013-019-020-261400-
NORTHWEST INDIANA

CITY           SKY/WX    TMP DP  RH WIND       PRES   REMARKS
GARY /AIRPORT/ PTSUNNY   61  48  63 W9          N/A
KNOX *+        MOSUNNY   59  41  51 W9        30.13S
MICHIGAN CITY+ PTSUNNY   61  52  72 SW6       30.12S
MONTICELLO +   SUNNY     62  51  67 W7        30.14S

$$

LMZ046-743>745-261400-
SOUTHERN LAKE MICHIGAN

STATION/POSITION TIME  TEMP    WIND        PRES    WAVE
                       AIR SEA DIR/SP/G            HT
                 (UTC) (F)     (DEG/KT/KT) (MB)    (FT)
BURNS HARBOR     1240   60     240/ 11/ 12 1020.3R
MICHIGAN CITY    1230   60     250/ 18/ 20   N/A
5NW MICH CITY    1250   61 66  280/ 12/ 16   N/A     3

$$

INZ004-005-014>016-021>024-261400-
NORTH CENTRAL INDIANA

CITY           SKY/WX    TMP DP  RH WIND       PRES   REMARKS
GOSHEN         SUNNY     61  52  72 W12       30.11S
SOUTH BEND     PTSUNNY   60  55  83 W8        30.12S

$$

INZ006>009-017-018-025>027-261400-
NORTHEAST INDIANA

CITY           SKY/WX    TMP DP  RH WIND       PRES   REMARKS
FORT WAYNE     MOSUNNY   62  51  67 W12       30.13R
KENDALLVILLE + SUNNY     60  54  79 W8G16     30.11S

$$

INZ028-029-035-036-043>045-051>053-261400-
WEST CENTRAL INDIANA

CITY           SKY/WX    TMP DP  RH WIND       PRES   REMARKS
LAFAYETTE      SUNNY     59  54  83 W5        30.16S
TERRE HAUTE    SUNNY     63  52  67 W7        30.19R

$$

INZ030>032-037>040-046>048-054>057-064-065-261400-
CENTRAL INDIANA

CITY           SKY/WX    TMP DP  RH WIND       PRES   REMARKS
ANDERSON       SUNNY    N/A N/A N/A MISG        N/A  VSB 3/16
COLUMBUS       SUNNY     63  50  63 W5        30.18S
GREENWOOD *+   SUNNY     62  50  64 W5        30.18S
INDIANAPOLIS   MOSUNNY   63  51  65 W7        30.17S
-EAGLE CREEK   SUNNY     63  50  62 W8        30.17R
KOKOMO +       SUNNY     61  51  70 W13       30.16R
MT COMFORT *+  MOSUNNY   61  52  72 W8        30.18R
SHELBYVILLE    SUNNY     64  51  62 W8        30.17R

$$

INZ033-034-041-042-049-050-058-059-261400-
EAST CENTRAL INDIANA

CITY           SKY/WX    TMP DP  RH WIND       PRES   REMARKS
MUNCIE         SUNNY     63  52  67 W9        30.16R
RICHMOND +     SUNNY     59  50  72 W9        30.17R

$$

INZ060-061-067>069-081>083-085>088-261400-
SOUTHWEST INDIANA

CITY           SKY/WX    TMP DP  RH WIND       PRES   REMARKS
EVANSVILLE     SUNNY     66  51  58 W5        30.22R
HUNTINGBURG *+ MOSUNNY   63  55  75 CALM      30.21R

$$

INZ062-063-066-070>080-084-089>092-261400-
SOUTH CENTRAL AND SOUTHEAST INDIANA

CITY           SKY/WX    TMP DP  RH WIND       PRES   REMARKS
BLOOMINGTON    SUNNY     63  50  62 W7        30.19R
MADISON *+     SUNNY     63  52  67 CALM      30.20S
SEYMOUR +      MOSUNNY  N/A N/A N/A CALM      30.18S

$$





USA.gov is the U.S. government's official web portal to all federal, state and local government web resources and services.